Location: Little Italy
(37.8008°N, 122.4108°W)
Time: 15:35:08
(UTC+00:00)

Daily predictions for brighter satellites

Satellite Brightness Start Highest point End
(mag) Time Altitude Azimuth Time Altitude Azimuth Time Altitude Azimuth
Cosmos 1025 Rocket 3.4 12:10:37 54° SE 12:11:11 60° E 12:15:23 10° NNE
ATLAS 2AS CENTAUR R/B 3.1 12:11:34 26° SSW 12:16:32 82° ESE 12:24:38 10° NE
CENTAUR R/B 4.5 12:10:12 10° NNW 12:17:31 36° NE 12:25:19 10° ESE
Cosmos 1733 3.7 12:18:07 58° ESE 12:18:07 58° ESE 12:21:31 10° SSE
Cosmos 2219 Rocket 2.1 12:22:51 57° W 12:23:14 59° WNW 12:28:46 10° NNE
Cosmos 1536 Rocket 3.4 12:24:39 76° NW 12:24:39 76° NW 12:28:45 10° N
USA 238 DEB 4.0 12:17:33 10° NNW 12:24:49 76° ENE 12:32:16 10° SE
USA 238 4.0 12:17:40 10° NNW 12:24:55 75° ENE 12:32:21 10° SE
Cosmos 921 Rocket 4.2 12:22:18 10° N 12:26:23 41° ENE 12:30:23 10° SE
Cosmos 2237 Rocket 2.8 12:23:41 10° S 12:29:13 58° ESE 12:34:48 10° NNE
Cosmos 2074 Rocket 4.2 12:23:39 10° S 12:29:51 70° E 12:36:03 10° NNE
CZ-2C R/B 2.6 12:31:59 10° NNE 12:37:13 82° E 12:42:21 10° S
NOSS 0 Rocket 3.9 12:31:51 12° SSW 12:37:36 88° ESE 12:43:49 10° NNE
COSMOS 2428 3.0 12:37:46 41° W 12:38:38 44° WNW 12:44:03 10° N
Cosmos 2181 Rocket 3.9 12:33:32 10° NNW 12:39:49 64° W 12:45:58 10° S
GPS 2-05 Rocket1 4.4 12:42:59 19° SSE 12:42:59 19° SSE 12:44:12 10° SE
Cosmos 1980 3.7 12:40:03 10° SSW 12:45:42 87° ESE 12:51:23 10° NNE
COSMOS 2455 4.0 12:46:20 24° NW 12:46:36 24° NW 12:51:23 10° N
IDEFIX/ARIANE 42P 3.2 12:43:54 10° N 12:48:31 32° WNW 12:48:48 32° WNW
CZ-4B R/B 2.8 12:44:50 10° NNE 12:48:55 85° ESE 12:52:44 10° SSW
NOSS 3-2 (A) 4.1 12:43:45 10° NNW 12:51:33 87° WSW 13:00:05 10° SSE
Cosmos 2360 Rocket 4.2 12:55:51 11° NW 12:55:51 11° NW 12:56:50 10° NNW
Cosmos 1140 Rocket 3.9 12:51:10 10° S 12:56:18 65° ESE 13:01:26 10° NNE
Milstar 3 Cent rocket 4.2 12:54:58 10° SSW 12:58:13 16° SSE 13:01:06 10° SE
PAYLOAD A 4.1 12:55:31 10° N 13:00:08 46° WNW 13:04:53 10° SW
Cosmos 1992 Rocket 4.5 12:57:13 10° NW 13:01:51 35° W 13:06:32 10° SSW
Cosmos 614 Rocket 3.9 12:59:46 10° SSW 13:04:58 69° WNW 13:10:12 10° NNE
Helios 1A Rocket 4.4 13:06:01 10° NNE 13:09:57 41° E 13:13:53 10° S
PSLV R/B 3.6 13:07:40 10° NNE 13:11:24 89° W 13:15:05 10° SSW
Cosmos 1953 2.4 13:08:06 10° N 13:12:09 77° E 13:16:08 10° S
Cosmos 292 Rocket 3.7 13:07:27 10° NNW 13:12:13 72° WSW 13:17:00 10° S
Meteor 1-4 Rocket 2.4 13:08:43 10° S 13:12:15 86° ESE 13:15:46 10° N
NOSS 3-2 (C) 4.2 13:05:55 10° NNW 13:13:43 88° ENE 13:22:17 10° SSE
Cosmos 44 3.6 13:11:51 10° NNW 13:16:08 57° ENE 13:20:21 10° SE
Cosmos 1844 Rocket 4.2 13:18:04 15° WSW 13:18:04 15° WSW 13:20:27 10° SW
Cosmos 1758 3.6 13:14:37 10° NNW 13:18:27 45° W 13:22:17 10° SSW
SL-16 R/B 2.9 13:14:54 10° S 13:20:24 57° ESE 13:25:57 10° NNE
COSMO-SKYMED 1 2.9 13:17:34 10° SSE 13:21:53 71° ENE 13:26:13 10° N
USA 234 3.8 13:19:29 10° SSE 13:25:25 37° SW 13:31:24 10° WNW
ERBS 3.8 13:24:48 17° WNW 13:26:05 21° NW 13:28:44 10° NNE
NOSS 3-4 (A) 3.6 13:21:18 10° SW 13:27:07 50° NW 13:33:13 10° NNE
NOSS 3-4 (C) 3.6 13:21:22 10° SW 13:27:12 51° NW 13:33:20 10° NNE
Cosmos 2154 Rocket 4.0 13:23:56 10° SSW 13:30:04 66° W 13:36:15 10° N
RESURS DK-1 2.8 13:26:04 10° SSW 13:30:09 66° ESE 13:34:16 10° NNE
SJ-12 3.9 13:26:36 10° NNE 13:30:42 90° W 13:34:47 10° SSW
Cosmos 2333 Rocket 3.7 13:29:58 13° W 13:32:28 17° NW 13:36:07 10° NNW
Cosmos 676 Rocket 4.0 13:27:58 10° SSW 13:33:15 73° WNW 13:38:32 10° NNE
H-2A R/B 4.3 13:32:45 10° NW 13:34:44 13° WNW 13:35:52 12° W
Cosmos 2278 Rocket 2.3 13:30:20 10° NNW 13:35:51 53° WSW 13:41:19 10° S
FENGYUN 3A 4.1 13:30:37 10° NNE 13:36:02 68° ESE 13:41:26 10° S
Okean O Rocket 1.7 13:37:10 10° NNE 13:41:35 84° E 13:45:57 10° SSW
Cosmos 389 Rocket 3.6 13:39:56 10° SW 13:42:38 22° WNW 13:45:22 10° NNW
Meteor 1-31 Rocket 4.2 13:40:10 10° NNW 13:42:51 18° WNW 13:45:30 10° WSW
Cosmos 1726 Rocket 3.5 13:38:50 10° NNW 13:43:08 69° W 13:47:24 10° S
SeaSat 1 3.2 13:40:43 10° NNE 13:45:35 59° ESE 13:50:26 10° SSW
Cosmos 407 Rocket 4.4 13:43:11 10° WSW 13:47:33 27° WNW 13:51:55 10° N
Cosmos 2341 Rocket 4.0 13:45:11 10° S 13:51:26 77° W 13:57:41 10° N
Cosmos 1470 4.2 13:49:36 10° NW 13:52:13 17° W 13:54:50 10° SW
Cosmos 2228 3.2 13:49:08 10° NNW 13:53:14 47° W 13:57:17 10° SSW
METEOR-M 4.1 13:48:07 10° N 13:53:28 77° WNW 13:58:47 10° SSW
Cosmos 1707 4.2 13:50:54 10° WSW 13:53:41 19° WNW 13:56:29 10° NNW
ATLAS 3B R/B 2.7 13:47:35 10° NW 13:54:19 78° WSW 14:01:15 10° SSE
Cosmos 2058 Rocket 3.0 13:50:49 10° N 13:55:14 80° W 13:59:40 10° S
Nadezhda 3 Rocket 4.2 13:49:44 10° NNW 13:55:51 51° W 14:01:55 10° SSW
Milstar 3 4.3 13:51:09 10° SW 13:57:01 32° SSE 14:03:56 10° ESE
